Time,TemperatureF,DewpointF,PressureIn,WindDirection,WindDirectionDegrees,WindSpeedMPH,WindSpeedGustMPH,Humidity,HourlyPrecipIn,Conditions,Clouds,dailyrainin,SoftwareType,DateUTC
2013-12-19 00:12:00,40.0,-99.9,-100.00,South,174,2.0,-999.0,-999,0.00,,,-99.99,,2013-12-19 06:12:00,
2013-12-19 00:22:00,40.0,-99.9,-100.00,South,174,2.0,-999.0,-999,0.00,,,-99.99,,2013-12-19 06:22:00,
2013-12-19 00:42:00,39.0,-99.9,-100.00,South,170,2.0,-999.0,-999,0.00,,,0.03,,2013-12-19 06:42:00,
2013-12-19 00:52:00,39.0,-99.9,-100.00,South,170,2.0,-999.0,-999,0.00,,,0.03,,2013-12-19 06:52:00,
2013-12-19 01:12:00,41.0,-99.9,-100.00,SE,138,2.0,-999.0,-999,0.00,,,-99.99,,2013-12-19 07:12:00,
2013-12-19 01:22:00,41.0,-99.9,-100.00,SE,138,2.0,-999.0,-999,0.00,,,-99.99,,2013-12-19 07:22:00,
2013-12-19 01:42:00,45.0,-99.9,-100.00,SE,137,4.0,-999.0,-999,0.00,,,0.03,,2013-12-19 07:42:00,
2013-12-19 01:52:00,45.0,-99.9,-100.00,SE,137,4.0,-999.0,-999,0.00,,,0.03,,2013-12-19 07:52:00,
2013-12-19 02:11:00,45.0,-99.9,-100.00,ESE,121,3.0,-999.0,-999,0.00,,,0.03,,2013-12-19 08:11:00,
2013-12-19 02:22:00,45.0,-99.9,-100.00,ESE,121,3.0,-999.0,-999,0.00,,,0.03,,2013-12-19 08:22:00,
2013-12-19 02:42:00,45.0,-99.9,-100.00,ESE,116,3.0,-999.0,-999,0.00,,,0.03,,2013-12-19 08:42:00,
2013-12-19 02:52:00,45.0,-99.9,-100.00,ESE,116,3.0,-999.0,-999,0.00,,,0.03,,2013-12-19 08:52:00,
2013-12-19 03:11:00,46.0,-99.9,-100.00,East,95,4.0,-999.0,-999,0.00,,,0.03,,2013-12-19 09:11:00,
2013-12-19 03:22:00,46.0,-99.9,-100.00,East,95,4.0,-999.0,-999,0.00,,,0.03,,2013-12-19 09:22:00,
2013-12-19 03:43:00,46.0,-99.9,-100.00,ESE,106,4.0,-999.0,-999,0.00,,,0.03,,2013-12-19 09:43:00,
2013-12-19 03:54:00,46.0,-99.9,-100.00,ESE,106,4.0,-999.0,-999,0.00,,,0.03,,2013-12-19 09:54:00,
2013-12-19 04:12:00,46.0,-99.9,-100.00,ESE,104,4.0,-999.0,-999,0.00,,,0.03,,2013-12-19 10:12:00,
2013-12-19 04:23:00,46.0,-99.9,-100.00,ESE,104,4.0,-999.0,-999,0.00,,,0.03,,2013-12-19 10:23:00,
2013-12-19 04:43:00,47.0,-99.9,-100.00,ESE,123,5.0,-999.0,-999,0.00,,,0.03,,2013-12-19 10:43:00,
2013-12-19 04:53:00,47.0,-99.9,-100.00,ESE,123,5.0,-999.0,-999,0.00,,,0.03,,2013-12-19 10:53:00,
2013-12-19 05:12:00,47.0,-99.9,-100.00,ESE,103,5.0,-999.0,-999,0.00,,,0.03,,2013-12-19 11:12:00,
2013-12-19 05:22:00,47.0,-99.9,-100.00,ESE,103,5.0,-999.0,-999,0.00,,,0.03,,2013-12-19 11:22:00,
2013-12-19 05:42:00,47.0,-99.9,-100.00,ESE,108,5.0,-999.0,-999,0.00,,,0.03,,2013-12-19 11:42:00,
2013-12-19 05:53:00,47.0,-99.9,-100.00,ESE,108,5.0,-999.0,-999,0.00,,,0.03,,2013-12-19 11:53:00,
2013-12-19 06:12:00,47.0,-99.9,-100.00,ESE,102,4.0,-999.0,-999,0.00,,,0.03,,2013-12-19 12:12:00,
2013-12-19 06:22:00,47.0,-99.9,-100.00,ESE,102,4.0,-999.0,-999,0.00,,,0.03,,2013-12-19 12:22:00,
2013-12-19 06:42:00,46.0,-99.9,-100.00,ESE,113,3.0,-999.0,-999,0.00,,,0.03,,2013-12-19 12:42:00,
2013-12-19 06:52:00,46.0,-99.9,-100.00,ESE,113,3.0,-999.0,-999,0.00,,,0.03,,2013-12-19 12:52:00,
2013-12-19 07:11:00,42.0,-99.9,-100.00,SSE,166,0.0,-999.0,-999,0.00,,,0.03,,2013-12-19 13:11:00,
2013-12-19 07:22:00,42.0,-99.9,-100.00,SSE,166,0.0,-999.0,-999,0.00,,,0.03,,2013-12-19 13:22:00,
2013-12-19 07:42:00,40.0,-99.9,-100.00,SW,217,2.0,-999.0,-999,0.00,,,0.03,,2013-12-19 13:42:00,
2013-12-19 07:53:00,40.0,-99.9,-100.00,SW,217,2.0,-999.0,-999,0.00,,,0.03,,2013-12-19 13:53:00,
2013-12-19 08:12:00,39.0,-99.9,-100.00,South,187,1.0,-999.0,-999,0.00,,,0.03,,2013-12-19 14:12:00,
2013-12-19 08:22:00,39.0,-99.9,-100.00,South,187,1.0,-999.0,-999,0.00,,,0.03,,2013-12-19 14:22:00,
2013-12-19 08:42:00,40.0,-99.9,-100.00,SW,235,1.0,-999.0,-999,0.00,,,0.03,,2013-12-19 14:42:00,
2013-12-19 08:53:00,40.0,-99.9,-100.00,SW,235,1.0,-999.0,-999,0.00,,,0.03,,2013-12-19 14:53:00,
2013-12-19 09:12:00,40.0,-99.9,-100.00,West,266,1.0,-999.0,-999,0.00,,,0.03,,2013-12-19 15:12:00,
2013-12-19 09:22:00,40.0,-99.9,-100.00,West,266,1.0,-999.0,-999,0.00,,,0.03,,2013-12-19 15:22:00,
2013-12-19 09:43:00,41.0,-99.9,-100.00,SSW,205,0.0,-999.0,-999,0.00,,,0.03,,2013-12-19 15:43:00,
2013-12-19 09:54:00,41.0,-99.9,-100.00,SSW,205,0.0,-999.0,-999,0.00,,,0.03,,2013-12-19 15:54:00,
2013-12-19 10:13:00,42.0,-99.9,-100.00,SSE,166,2.0,-999.0,-999,0.00,,,0.03,,2013-12-19 16:13:00,
2013-12-19 10:23:00,42.0,-99.9,-100.00,SSE,166,2.0,-999.0,-999,0.00,,,0.03,,2013-12-19 16:23:00,
2013-12-19 10:43:00,44.0,-99.9,-100.00,SE,125,2.0,-999.0,-999,0.00,,,0.03,,2013-12-19 16:43:00,
2013-12-19 10:53:00,44.0,-99.9,-100.00,SE,125,2.0,-999.0,-999,0.00,,,0.03,,2013-12-19 16:53:00,
2013-12-19 11:12:00,46.0,-99.9,-100.00,East,101,2.0,-999.0,-999,0.00,,,0.02,,2013-12-19 17:12:00,
2013-12-19 11:22:00,46.0,-99.9,-100.00,East,101,2.0,-999.0,-999,0.00,,,0.02,,2013-12-19 17:22:00,
2013-12-19 11:42:00,52.0,-99.9,-100.00,ESE,122,4.0,-999.0,-999,0.00,,,0.01,,2013-12-19 17:42:00,
2013-12-19 11:53:00,52.0,-99.9,-100.00,ESE,122,4.0,-999.0,-999,0.00,,,0.01,,2013-12-19 17:53:00,
2013-12-19 12:12:00,52.0,-99.9,-100.00,ESE,112,3.0,-999.0,-999,0.00,,,0.00,,2013-12-19 18:12:00,
2013-12-19 12:22:00,52.0,-99.9,-100.00,ESE,112,3.0,-999.0,-999,0.00,,,0.00,,2013-12-19 18:22:00,
2013-12-19 12:42:00,55.0,-99.9,-100.00,SE,138,4.0,-999.0,-999,0.00,,,0.00,,2013-12-19 18:42:00,
2013-12-19 12:52:00,55.0,-99.9,-100.00,SE,138,4.0,-999.0,-999,0.00,,,0.00,,2013-12-19 18:52:00,
2013-12-19 13:11:00,56.0,-99.9,-100.00,SE,144,4.0,-999.0,-999,0.00,,,0.00,,2013-12-19 19:11:00,
2013-12-19 13:22:00,56.0,-99.9,-100.00,SE,144,4.0,-999.0,-999,0.00,,,0.00,,2013-12-19 19:22:00,
2013-12-19 13:42:00,55.0,-99.9,-100.00,SE,144,4.0,-999.0,-999,0.00,,,0.00,,2013-12-19 19:42:00,
2013-12-19 13:52:00,55.0,-99.9,-100.00,SE,144,4.0,-999.0,-999,0.00,,,0.00,,2013-12-19 19:52:00,
2013-12-19 14:12:00,55.0,-99.9,-100.00,ESE,104,3.0,-999.0,-999,0.00,,,0.00,,2013-12-19 20:12:00,
2013-12-19 14:22:00,55.0,-99.9,-100.00,ESE,104,3.0,-999.0,-999,0.00,,,0.00,,2013-12-19 20:22:00,
2013-12-19 14:42:00,57.0,-99.9,-100.00,SE,131,5.0,-999.0,-999,0.00,,,0.00,,2013-12-19 20:42:00,
2013-12-19 14:52:00,57.0,-99.9,-100.00,SE,131,5.0,-999.0,-999,0.00,,,0.00,,2013-12-19 20:52:00,
2013-12-19 15:11:00,56.0,-99.9,-100.00,SE,139,5.0,-999.0,-999,0.00,,,0.00,,2013-12-19 21:11:00,
2013-12-19 15:22:00,56.0,-99.9,-100.00,SE,139,5.0,-999.0,-999,0.00,,,0.00,,2013-12-19 21:22:00,
2013-12-19 15:43:00,56.0,-99.9,-100.00,SE,133,6.0,-999.0,-999,0.00,,,0.00,,2013-12-19 21:43:00,
2013-12-19 15:53:00,56.0,-99.9,-100.00,SE,133,6.0,-999.0,-999,0.00,,,0.00,,2013-12-19 21:53:00,
2013-12-19 16:13:00,55.0,-99.9,-100.00,SE,134,6.0,-999.0,-999,0.00,,,0.00,,2013-12-19 22:13:00,
2013-12-19 16:23:00,55.0,-99.9,-100.00,SE,134,6.0,-999.0,-999,0.00,,,0.00,,2013-12-19 22:23:00,
2013-12-19 16:43:00,55.0,-99.9,-100.00,ESE,122,5.0,-999.0,-999,0.00,,,0.00,,2013-12-19 22:43:00,
2013-12-19 16:53:00,55.0,-99.9,-100.00,ESE,122,5.0,-999.0,-999,0.00,,,0.00,,2013-12-19 22:53:00,
2013-12-19 17:13:00,55.0,-99.9,-100.00,SE,125,5.0,-999.0,-999,0.00,,,0.00,,2013-12-19 23:13:00,
2013-12-19 17:22:00,55.0,-99.9,-100.00,SE,125,5.0,-999.0,-999,0.00,,,0.00,,2013-12-19 23:22:00,
2013-12-19 17:42:00,54.0,-99.9,-100.00,SE,142,6.0,-999.0,-999,0.00,,,0.00,,2013-12-19 23:42:00,
2013-12-19 17:53:00,54.0,-99.9,-100.00,SE,142,6.0,-999.0,-999,0.00,,,0.00,,2013-12-19 23:53:00,
2013-12-19 18:12:00,55.0,-99.9,-100.00,SE,139,6.0,-999.0,-999,0.00,,,0.00,,2013-12-20 00:12:00,
2013-12-19 18:22:00,55.0,-99.9,-100.00,SE,139,6.0,-999.0,-999,0.00,,,0.00,,2013-12-20 00:22:00,
2013-12-19 18:42:00,54.0,-99.9,-100.00,SSE,147,6.0,-999.0,-999,0.00,,,0.00,,2013-12-20 00:42:00,
2013-12-19 18:53:00,54.0,-99.9,-100.00,SSE,147,6.0,-999.0,-999,0.00,,,0.00,,2013-12-20 00:53:00,
2013-12-19 19:12:00,55.0,-99.9,-100.00,SE,129,7.0,-999.0,-999,0.00,,,0.00,,2013-12-20 01:12:00,
2013-12-19 19:22:00,55.0,-99.9,-100.00,SE,129,7.0,-999.0,-999,0.00,,,0.00,,2013-12-20 01:22:00,
2013-12-19 19:42:00,55.0,-99.9,-100.00,SE,132,8.0,-999.0,-999,0.00,,,0.00,,2013-12-20 01:42:00,
2013-12-19 19:52:00,55.0,-99.9,-100.00,SE,132,8.0,-999.0,-999,0.00,,,0.00,,2013-12-20 01:52:00,
2013-12-19 20:11:00,54.0,-99.9,-100.00,SE,131,7.0,-999.0,-999,0.00,,,0.00,,2013-12-20 02:11:00,
2013-12-19 20:22:00,54.0,-99.9,-100.00,SE,131,7.0,-999.0,-999,0.00,,,0.00,,2013-12-20 02:22:00,
2013-12-19 20:42:00,55.0,-99.9,-100.00,SE,140,8.0,-999.0,-999,0.00,,,0.00,,2013-12-20 02:42:00,
2013-12-19 20:53:00,55.0,-99.9,-100.00,SE,140,8.0,-999.0,-999,0.00,,,0.00,,2013-12-20 02:53:00,
2013-12-19 21:11:00,54.0,-99.9,-100.00,SE,136,8.0,-999.0,-999,0.00,,,0.00,,2013-12-20 03:11:00,
2013-12-19 21:22:00,54.0,-99.9,-100.00,SE,136,8.0,-999.0,-999,0.00,,,0.00,,2013-12-20 03:22:00,
2013-12-19 21:44:00,54.0,-99.9,-100.00,SE,133,6.0,-999.0,-999,0.00,,,0.00,,2013-12-20 03:44:00,
2013-12-19 21:53:00,54.0,-99.9,-100.00,SE,133,6.0,-999.0,-999,0.00,,,0.00,,2013-12-20 03:53:00,
2013-12-19 22:13:00,54.0,-99.9,-100.00,SE,130,8.0,-999.0,-999,0.00,,,0.00,,2013-12-20 04:13:00,
2013-12-19 22:23:00,54.0,-99.9,-100.00,SE,130,8.0,-999.0,-999,0.00,,,0.00,,2013-12-20 04:23:00,
2013-12-19 22:43:00,54.0,-99.9,-100.00,SE,132,6.0,-999.0,-999,0.00,,,0.00,,2013-12-20 04:43:00,
2013-12-19 22:53:00,54.0,-99.9,-100.00,SE,132,6.0,-999.0,-999,0.00,,,0.00,,2013-12-20 04:53:00,
2013-12-19 23:12:00,53.0,-99.9,-100.00,ESE,108,6.0,-999.0,-999,0.00,,,0.00,,2013-12-20 05:12:00,
2013-12-19 23:22:00,53.0,-99.9,-100.00,ESE,108,6.0,-999.0,-999,0.00,,,0.00,,2013-12-20 05:22:00,
2013-12-19 23:43:00,52.0,-99.9,-100.00,ESE,114,4.0,-999.0,-999,0.00,,,0.00,,2013-12-20 05:43:00,
2013-12-19 23:53:00,52.0,-99.9,-100.00,ESE,114,4.0,-999.0,-999,0.00,,,0.00,,2013-12-20 05:53:00,